Simultaneous Nadir Overpasses (SNOs) Predictions

Prediction of SNOs between GOES-15 and TERRA Satellite Orbit:

Table of predicted SNOs for the next 14.0 days since TLE Epoch: 11/9/2024
Index Date Time (GOES-15) GOES-15 Lat,Lon TERRA Lat,Lon Distance(km) Time Diff (sec)
1 11/10/2024 05:28:28 -0.23, 61.46 -0.48, 62.60 129.80 80
2 11/10/2024 17:48:18 0.23, 61.57 -0.57, 57.78 431.03 80
3 11/12/2024 17:27:26 0.23, 61.61 0.36, 62.17 63.96 80
4 11/13/2024 05:47:09 -0.22, 61.51 0.65, 57.37 470.74 80
5 11/15/2024 05:31:35 -0.23, 61.55 -0.24, 61.77 25.01 80
6 11/17/2024 17:33:10 0.21, 61.70 0.16, 61.35 39.96 80
7 11/19/2024 17:12:13 0.21, 61.75 1.02, 65.76 455.01 80
8 11/20/2024 05:31:56 -0.20, 61.67 -0.07, 60.96 80.29 80
9 11/22/2024 05:16:18 -0.20, 61.72 -0.96, 65.38 415.95 80
10 11/22/2024 17:36:06 0.19, 61.82 -0.04, 60.56 142.57 80
